| time (UTC) | temp F | wind direction | speed MPH | gust MPH | rain 1hr in | rain 24hr in | rain mn in | humidity % | barometer mb |
| 20260506090524 | 50 | 236 | 4.0 | 8.0 | 0.00 | 0.64 | 0.20 | 90 | 1006.9 |
| 20260506085522 | 50 | 192 | 5.0 | 9.0 | 0.00 | 0.64 | 0.20 | 90 | 1006.5 |
| 20260506084540 | 50 | 243 | 4.0 | 6.0 | 0.00 | 0.64 | 0.20 | 90 | 1006.1 |
| 20260506083517 | 51 | 198 | 4.0 | 6.0 | 0.00 | 0.64 | 0.20 | 90 | 1006.1 |
| 20260506082535 | 51 | 237 | 3.0 | 5.0 | 0.00 | 0.64 | 0.20 | 90 | 1006.1 |
| 20260506081525 | 51 | 220 | 4.0 | 6.0 | 0.00 | 0.64 | 0.20 | 90 | 1006.0 |
| 20260506080528 | 51 | 220 | 4.0 | 6.0 | 0.00 | 0.64 | 0.20 | 90 | 1005.8 |
| 20260506073521 | 51 | 208 | 6.0 | 11.0 | 0.00 | 0.64 | 0.20 | 90 | 1005.5 |
| 20260506072525 | 52 | 197 | 5.0 | 8.0 | 0.00 | 0.64 | 0.20 | 90 | 1005.5 |
| 20260506071529 | 52 | 221 | 6.0 | 10.0 | 0.00 | 0.64 | 0.20 | 90 | 1005.5 |
| 20260506070532 | 52 | 215 | 5.0 | 7.0 | 0.00 | 0.64 | 0.20 | 90 | 1005.1 |
| 20260506061515 | 53 | 243 | 5.0 | 8.0 | 0.00 | 0.64 | 0.20 | 89 | 1005.0 |
| 20260506060518 | 53 | 221 | 6.0 | 9.0 | 0.00 | 0.64 | 0.20 | 89 | 1004.8 |
| 20260506050522 | 54 | 205 | 6.0 | 8.0 | 0.00 | 0.64 | 0.20 | 88 | 1004.2 |
| 20260506044523 | 54 | 239 | 5.0 | 8.0 | 0.00 | 0.64 | 0.20 | 93 | 1003.8 |
| 20260506043515 | 54 | 196 | 4.0 | 6.0 | 0.00 | 0.64 | 0.20 | 94 | 1003.8 |
| 20260506042518 | 54 | 238 | 3.0 | 6.0 | 0.00 | 0.64 | 0.20 | 94 | 1003.8 |
| 20260506041516 | 54 | 246 | 4.0 | 7.0 | 0.00 | 0.64 | 0.20 | 94 | 1003.7 |
| 20260506040526 | 54 | 269 | 4.0 | 5.0 | 0.00 | 0.64 | 0.20 | 94 | 1003.2 |
| 20260506035529 | 54 | 301 | 3.0 | 5.0 | 0.00 | 0.64 | 0.20 | 95 | 1003.2 |
| 20260506034515 | 54 | 261 | 3.0 | 5.0 | 0.00 | 0.64 | 0.20 | 95 | 1002.8 |
| 20260506033519 | 54 | 223 | 4.0 | 6.0 | 0.00 | 0.64 | 0.20 | 96 | 1002.8 |
| 20260506032523 | 54 | 216 | 4.0 | 6.0 | 0.00 | 0.64 | 0.20 | 96 | 1002.7 |
| 20260506031526 | 54 | 216 | 3.0 | 4.0 | 0.00 | 0.64 | 0.20 | 96 | 1002.6 |
| 20260506030530 | 54 | 206 | 3.0 | 4.0 | 0.00 | 0.64 | 0.20 | 96 | 1002.3 |
| 20260506025516 | 55 | 225 | 3.0 | 5.0 | 0.00 | 0.64 | 0.20 | 96 | 1002.3 |
| 20260506024519 | 55 | 246 | 2.0 | 3.0 | 0.00 | 0.64 | 0.20 | 96 | 1002.1 |
| 20260506023523 | 55 | 224 | 3.0 | 4.0 | 0.01 | 0.64 | 0.20 | 96 | 1002.0 |
| 20260506022547 | 55 | 268 | 3.0 | 5.0 | 0.04 | 0.64 | 0.20 | 96 | 1001.8 |
| 20260506021530 | 56 | 201 | 3.0 | 4.0 | 0.08 | 0.64 | 0.20 | 96 | 1001.6 |
| 20260506020516 | 56 | 209 | 2.0 | 5.0 | 0.08 | 0.64 | 0.20 | 96 | 1001.3 |
| 20260506015519 | 56 | 218 | 2.0 | 4.0 | 0.10 | 0.64 | 0.20 | 96 | 1001.5 |
| 20260506014523 | 56 | 167 | 0.0 | 1.0 | 0.16 | 0.64 | 0.20 | 96 | 1001.8 |
| 20260506013526 | 56 | 203 | 0.0 | 2.0 | 0.17 | 0.63 | 0.19 | 96 | 1001.7 |
| 20260506012530 | 56 | 236 | 3.0 | 4.0 | 0.14 | 0.60 | 0.16 | 95 | 1001.5 |
| 20260506011516 | 56 | 211 | 2.0 | 5.0 | 0.10 | 0.56 | 0.12 | 95 | 1001.0 |
| 20260506010520 | 57 | 215 | 3.0 | 5.0 | 0.10 | 0.56 | 0.12 | 95 | 1001.3 |
| 20260506005523 | 57 | 240 | 3.0 | 5.0 | 0.08 | 0.54 | 0.10 | 94 | 1001.0 |
| 20260506004527 | 57 | 296 | 2.0 | 4.0 | 0.04 | 0.48 | 0.04 | 94 | 1000.8 |
| 20260506003524 | 57 | 203 | 1.0 | 2.0 | 0.02 | 0.46 | 0.02 | 93 | 1000.3 |
| 20260506002516 | 57 | 0.0 | 0.0 | 0.02 | 0.46 | 0.02 | 93 | 1000.0 | |
| 20260506001520 | 57 | 0.0 | 0.0 | 0.02 | 0.46 | 0.02 | 92 | 1000.3 | |
| 20260506000517 | 57 | 270 | 1.0 | 3.0 | 0.02 | 0.46 | 0.02 | 91 | 1000.0 |
| 20260505235515 | 58 | 222 | 2.0 | 3.0 | 0.02 | 0.46 | 0.02 | 91 | 1000.3 |
| 20260505234531 | 58 | 232 | 2.0 | 4.0 | 0.00 | 0.44 | 0.00 | 90 | 999.6 |
| 20260505233516 | 58 | 212 | 3.0 | 5.0 | 0.01 | 0.44 | 0.00 | 90 | 999.5 |
| 20260505232520 | 58 | 235 | 3.0 | 5.0 | 0.01 | 0.44 | 0.00 | 90 | 999.6 |
| 20260505231524 | 58 | 234 | 3.0 | 5.0 | 0.01 | 0.44 | 0.00 | 89 | 999.7 |
| 20260505230548 | 58 | 207 | 3.0 | 5.0 | 0.05 | 0.44 | 0.00 | 89 | 999.7 |
| 20260505225551 | 59 | 242 | 3.0 | 5.0 | 0.05 | 0.44 | 0.44 | 88 | 998.8 |
| 20260505224536 | 59 | 190 | 3.0 | 5.0 | 0.05 | 0.44 | 0.44 | 87 | 998.8 |
| 20260505223600 | 59 | 204 | 2.0 | 3.0 | 0.05 | 0.43 | 0.43 | 86 | 998.7 |
| 20260505222524 | 59 | 209 | 2.0 | 5.0 | 0.05 | 0.43 | 0.43 | 84 | 998.4 |
| 20260505221527 | 60 | 253 | 4.0 | 7.0 | 0.05 | 0.43 | 0.43 | 82 | 998.3 |
| 20260505220531 | 60 | 241 | 3.0 | 7.0 | 0.01 | 0.39 | 0.39 | 81 | 998.1 |
| 20260505215537 | 60 | 220 | 6.0 | 8.0 | 0.01 | 0.39 | 0.39 | 80 | 998.1 |
| 20260505214520 | 61 | 230 | 7.0 | 8.0 | 0.01 | 0.39 | 0.39 | 78 | 997.5 |
| 20260505213524 | 62 | 262 | 7.0 | 10.0 | 0.00 | 0.38 | 0.38 | 75 | 997.8 |
| 20260505212528 | 64 | 273 | 9.0 | 15.0 | 0.00 | 0.38 | 0.38 | 72 | 997.5 |
| 20260505211532 | 70 | 309 | 13.0 | 19.0 | 0.00 | 0.38 | 0.38 | 67 | 995.8 |
| 20260505210537 | 72 | 228 | 11.0 | 15.0 | 0.01 | 0.38 | 0.38 | 67 | 996.0 |
| 20260505205541 | 72 | 237 | 11.0 | 21.0 | 0.01 | 0.38 | 0.38 | 67 | 995.4 |
| 20260505204524 | 73 | 248 | 13.0 | 20.0 | 0.01 | 0.38 | 0.38 | 68 | 995.9 |
| 20260505203528 | 73 | 259 | 13.0 | 22.0 | 0.01 | 0.38 | 0.38 | 70 | 995.4 |
| 20260505202525 | 73 | 206 | 13.0 | 20.0 | 0.01 | 0.38 | 0.38 | 71 | 995.2 |
| 20260505201517 | 73 | 209 | 10.0 | 16.0 | 0.01 | 0.38 | 0.38 | 73 | 995.7 |
| 20260505200521 | 72 | 214 | 10.0 | 15.0 | 0.00 | 0.37 | 0.37 | 76 | 995.8 |
| 20260505195519 | 70 | 219 | 8.0 | 13.0 | 0.00 | 0.37 | 0.37 | 78 | 996.0 |
| 20260505194516 | 69 | 205 | 7.0 | 15.0 | 0.00 | 0.37 | 0.37 | 80 | 996.5 |
| 20260505193532 | 69 | 223 | 6.0 | 10.0 | 0.00 | 0.37 | 0.37 | 81 | 996.5 |
| 20260505192517 | 70 | 219 | 6.0 | 11.0 | 0.00 | 0.37 | 0.37 | 82 | 996.5 |
| 20260505191521 | 69 | 215 | 6.0 | 10.0 | 0.00 | 0.37 | 0.37 | 83 | 996.5 |
| 20260505190545 | 67 | 188 | 4.0 | 7.0 | 0.00 | 0.37 | 0.37 | 86 | 996.5 |
| 20260505185529 | 64 | 170 | 4.0 | 6.0 | 0.00 | 0.37 | 0.37 | 89 | 997.1 |
| 20260505184532 | 63 | 288 | 1.0 | 2.0 | 0.01 | 0.37 | 0.37 | 90 | 997.1 |
| 20260505183518 | 61 | 124 | 0.0 | 2.0 | 0.01 | 0.37 | 0.37 | 91 | 997.2 |
| 20260505182522 | 60 | 135 | 0.0 | 2.0 | 0.04 | 0.37 | 0.37 | 91 | 997.4 |
| 20260505181525 | 59 | 123 | 2.0 | 4.0 | 0.09 | 0.37 | 0.37 | 91 | 997.5 |
| 20260505180529 | 59 | 148 | 0.0 | 2.0 | 0.10 | 0.37 | 0.37 | 91 | 997.9 |
| 20260505175533 | 58 | 145 | 2.0 | 4.0 | 0.10 | 0.37 | 0.37 | 90 | 998.2 |
| 20260505174538 | 59 | 227 | 2.0 | 3.0 | 0.09 | 0.36 | 0.36 | 88 | 997.9 |
| 20260505173522 | 59 | 259 | 2.0 | 4.0 | 0.09 | 0.36 | 0.36 | 87 | 997.8 |
| 20260505172525 | 59 | 260 | 3.0 | 5.0 | 0.11 | 0.33 | 0.33 | 86 | 997.7 |
| 20260505171529 | 60 | 297 | 3.0 | 5.0 | 0.21 | 0.28 | 0.28 | 84 | 997.5 |
| 20260505170532 | 60 | 282 | 3.0 | 4.0 | 0.20 | 0.27 | 0.27 | 83 | 997.4 |
| 20260505165518 | 61 | 307 | 3.0 | 3.0 | 0.20 | 0.27 | 0.27 | 82 | 997.6 |
| 20260505164522 | 61 | 261 | 3.0 | 5.0 | 0.20 | 0.27 | 0.27 | 80 | 998.1 |
| 20260505163525 | 62 | 241 | 4.0 | 6.0 | 0.20 | 0.27 | 0.27 | 78 | 998.1 |
| 20260505162529 | 64 | 237 | 5.0 | 9.0 | 0.15 | 0.22 | 0.22 | 73 | 998.2 |
| 20260505161527 | 64 | 189 | 5.0 | 7.0 | 0.00 | 0.07 | 0.07 | 73 | 998.0 |
| 20260505160518 | 64 | 186 | 3.0 | 7.0 | 0.00 | 0.07 | 0.07 | 73 | 998.3 |
| 20260505152515 | 66 | 226 | 8.0 | 13.0 | 0.00 | 0.09 | 0.07 | 71 | 998.2 |
| 20260505151518 | 67 | 168 | 9.0 | 13.0 | 0.00 | 0.11 | 0.07 | 70 | 998.7 |
| 20260505150542 | 0 | 0.0 | 0.0 | 0.00 | 0.12 | 0.07 | 998.3 | ||
| 20260505140606 | 63 | 62 | 3.0 | 5.0 | 0.00 | 0.26 | 0.07 | 72 | 998.7 |
| 20260505124519 | 54 | 72 | 2.0 | 4.0 | 0.00 | 0.33 | 0.07 | 83 | 999.6 |
| 20260505123523 | 53 | 86 | 4.0 | 6.0 | 0.00 | 0.33 | 0.07 | 84 | 999.4 |
| 20260505122526 | 53 | 91 | 3.0 | 5.0 | 0.00 | 0.33 | 0.07 | 84 | 999.3 |
| 20260505121530 | 53 | 55 | 4.0 | 6.0 | 0.00 | 0.33 | 0.07 | 85 | 999.3 |
| 20260505120535 | 53 | 64 | 3.0 | 5.0 | 0.00 | 0.33 | 0.07 | 86 | 1000.3 |
| 20260505115519 | 51 | 84 | 3.0 | 5.0 | 0.00 | 0.33 | 0.07 | 87 | 1000.2 |
| 20260505114523 | 50 | 87 | 3.0 | 5.0 | 0.00 | 0.33 | 0.07 | 88 | 1000.2 |
| 20260505113520 | 50 | 88 | 4.0 | 6.0 | 0.00 | 0.33 | 0.07 | 88 | 1000.3 |
| 20260505112518 | 51 | 42 | 3.0 | 5.0 | 0.07 | 0.33 | 0.07 | 88 | 1000.3 |
| 20260505111515 | 49 | 102 | 3.0 | 4.0 | 0.07 | 0.33 | 0.07 | 90 | 999.9 |
| 20260505110519 | 48 | 86 | 3.0 | 6.0 | 0.07 | 0.33 | 0.07 | 91 | 999.8 |
| 20260505101519 | 41 | 123 | 2.0 | 4.0 | 0.00 | 0.26 | 0.00 | 97 | 999.9 |
| 20260505100603 | 39 | 72 | 2.0 | 3.0 | 0.00 | 0.26 | 0.00 | 96 | 1000.0 |
| 20260505095527 | 39 | 0.0 | 0.0 | 0.00 | 0.26 | 0.00 | 96 | 1000.0 | |
| 20260505094530 | 39 | 69 | 0.0 | 2.0 | 0.00 | 0.26 | 0.00 | 96 | 1000.3 |
| 20260505093516 | 38 | 0.0 | 0.0 | 0.00 | 0.26 | 0.00 | 96 | 1000.4 | |
| 20260505092519 | 38 | 113 | 1.0 | 3.0 | 0.00 | 0.26 | 0.00 | 96 | 1000.4 |
| 20260505091523 | 38 | 109 | 1.0 | 3.0 | 0.00 | 0.26 | 0.00 | 96 | 1000.4 |